BAW106 OMDB-EGLL

Flight info

Callsign BAW106
Flight time N/A
Altitude 33000
Route ANVIX L223 TARDI N629 BOTAM Y855 LAKLU/N0494F340 Q204 NALKI/N0501F360 G652 TOKRA DCT ALROK DCT BOSOB DCT ITRUX Y511 PMA Z712 WEJ L677 KUPTI/N0494F380 L677 GESON Q777 RASDA DCT OTHON DCT VAXOS DCT RDS UL609 MES DCT FSK DCT DISOR DCT LONTA UL608 DOLEV DCT SABAD DCT KUBUD DCT SOTOV DCT XEBIX DCT USUDO DCT LIRSU DCT DENUT L608 COA/N0365F180 L179 SASKI L608 LOGAN
Aircraft A388/J-SADE2E3FGHIJ3J4J5M1RWXY/LB1D1

Departure

Time 2026-04-22 21:41
Airport Dubai International Airport (OMDB)

Arrival

Time N/A
Airport London Heathrow Airport (EGLL)
Time Latitude Longitude Altitude Speed Heading
2026-04-22 21:21 25.25974 55.34356 26 ft 0 kts 211°
2026-04-22 21:27 25.25987 55.34365 32 ft 4 kts 211°
2026-04-22 21:27 25.26010 55.34380 34 ft 4 kts 211°
2026-04-22 21:27 25.26033 55.34395 32 ft 4 kts 195°
2026-04-22 21:28 25.26057 55.34395 31 ft 4 kts 147°
2026-04-22 21:28 25.26071 55.34379 30 ft 3 kts 122°
2026-04-22 21:28 25.26085 55.34354 32 ft 4 kts 122°
2026-04-22 21:28 25.26095 55.34336 32 ft 1 kts 122°
2026-04-22 21:31 25.26091 55.34344 32 ft 4 kts 122°
2026-04-22 21:31 25.26069 55.34382 31 ft 8 kts 122°
2026-04-22 21:31 25.26036 55.34442 29 ft 11 kts 122°
2026-04-22 21:32 25.26003 55.34515 29 ft 10 kts 92°
2026-04-22 21:32 25.26037 55.34578 31 ft 11 kts 41°
2026-04-22 21:32 25.26096 55.34636 26 ft 12 kts 47°
2026-04-22 21:32 25.26152 55.34708 26 ft 13 kts 50°
2026-04-22 21:33 25.26221 55.34775 27 ft 14 kts 33°
2026-04-22 21:33 25.26303 55.34829 27 ft 12 kts 30°
2026-04-22 21:33 25.26348 55.34893 28 ft 10 kts 86°
2026-04-22 21:33 25.26322 55.34965 28 ft 11 kts 121°
2026-04-22 21:34 25.26276 55.35048 27 ft 14 kts 121°
2026-04-22 21:34 25.26222 55.35146 28 ft 16 kts 122°
2026-04-22 21:34 25.26160 55.35255 28 ft 18 kts 122°
2026-04-22 21:34 25.26091 55.35375 27 ft 19 kts 122°
2026-04-22 21:35 25.26019 55.35501 27 ft 20 kts 122°
2026-04-22 21:35 25.25943 55.35634 27 ft 21 kts 122°
2026-04-22 21:35 25.25867 55.35771 27 ft 21 kts 121°
2026-04-22 21:35 25.25786 55.35918 27 ft 23 kts 121°
2026-04-22 21:36 25.25703 55.36067 27 ft 23 kts 122°
2026-04-22 21:36 25.25618 55.36215 28 ft 23 kts 122°
2026-04-22 21:36 25.25534 55.36366 27 ft 24 kts 121°
2026-04-22 21:36 25.25446 55.36523 27 ft 24 kts 121°
2026-04-22 21:37 25.25359 55.36679 26 ft 24 kts 122°
2026-04-22 21:37 25.25273 55.36831 27 ft 23 kts 122°
2026-04-22 21:37 25.25186 55.36982 27 ft 23 kts 122°
2026-04-22 21:37 25.25103 55.37130 28 ft 22 kts 121°
2026-04-22 21:38 25.25024 55.37273 28 ft 22 kts 122°
2026-04-22 21:38 25.24944 55.37416 29 ft 22 kts 122°
2026-04-22 21:38 25.24862 55.37561 28 ft 22 kts 122°
2026-04-22 21:38 25.24780 55.37706 28 ft 22 kts 122°
2026-04-22 21:39 25.24712 55.37828 27 ft 18 kts 121°
2026-04-22 21:39 25.24670 55.37910 27 ft 10 kts 103°
2026-04-22 21:39 25.24693 55.37971 28 ft 9 kts 38°
2026-04-22 21:39 25.24748 55.38011 29 ft 10 kts 32°
2026-04-22 21:40 25.24795 55.38027 31 ft 6 kts 347°
2026-04-22 21:40 25.24825 55.37999 30 ft 7 kts 300°
2026-04-22 21:40 25.24923 55.37814 31 ft 61 kts 300°
2026-04-22 21:40 25.25266 55.37195 32 ft 124 kts 301°
2026-04-22 21:41 25.25798 55.36237 31 ft 164 kts 301°
2026-04-22 21:41 25.26407 55.35102 308 ft 170 kts 302°
2026-04-22 21:41 25.27033 55.33973 656 ft 175 kts 303°
2026-04-22 21:41 25.27693 55.32817 961 ft 182 kts 304°
2026-04-22 21:42 25.28392 55.31620 1099 ft 196 kts 302°
2026-04-22 21:42 25.29041 55.30256 1255 ft 206 kts 292°
2026-04-22 21:42 25.29188 55.28653 1377 ft 218 kts 259°
2026-04-22 21:42 25.28601 55.27085 1466 ft 226 kts 242°
2026-04-22 21:43 25.27853 55.25526 1627 ft 238 kts 243°
2026-04-22 21:43 25.27095 55.23865 2054 ft 242 kts 245°
2026-04-22 21:43 25.26365 55.22146 2545 ft 249 kts 246°
2026-04-22 21:43 25.25654 55.20398 3149 ft 249 kts 246°
2026-04-22 21:44 25.24943 55.18668 3739 ft 250 kts 244°
2026-04-22 21:44 25.23870 55.17190 4383 ft 246 kts 214°
2026-04-22 21:44 25.22319 55.16503 5087 ft 243 kts 186°
2026-04-22 21:44 25.20605 55.16549 5552 ft 251 kts 175°
2026-04-22 21:45 25.18932 55.17147 6080 ft 258 kts 148°
2026-04-22 21:45 25.17696 55.18554 6632 ft 264 kts 122°
2026-04-22 21:45 25.16867 55.20396 6954 ft 274 kts 119°
2026-04-22 21:45 25.15980 55.22332 7003 ft 287 kts 120°
2026-04-22 21:46 25.15050 55.24294 7003 ft 290 kts 120°
2026-04-22 21:46 25.14106 55.26262 7002 ft 290 kts 120°
2026-04-22 21:46 25.13159 55.28228 7004 ft 289 kts 120°
2026-04-22 21:46 25.12215 55.30188 7003 ft 289 kts 121°
2026-04-22 21:47 25.11271 55.32145 7003 ft 289 kts 120°
2026-04-22 21:47 25.10365 55.34132 7006 ft 291 kts 116°
2026-04-22 21:47 25.09537 55.36171 7252 ft 293 kts 117°
2026-04-22 21:47 25.08706 55.38198 7868 ft 292 kts 117°
2026-04-22 21:48 25.07862 55.40247 8470 ft 294 kts 117°
2026-04-22 21:48 25.07014 55.42301 9065 ft 296 kts 117°
2026-04-22 21:48 25.06189 55.44397 9653 ft 298 kts 116°
2026-04-22 21:48 25.05384 55.46513 10183 ft 302 kts 116°
2026-04-22 21:49 25.04548 55.48709 10353 ft 320 kts 116°
2026-04-22 21:49 25.03663 55.51017 10496 ft 335 kts 116°
2026-04-22 21:49 25.02732 55.53436 10664 ft 350 kts 115°
2026-04-22 21:49 25.01707 55.55903 11025 ft 355 kts 121°
2026-04-22 21:50 25.00442 55.58246 11520 ft 358 kts 123°
2026-04-22 21:50 24.99153 55.60617 12017 ft 362 kts 123°
2026-04-22 21:50 24.97880 55.62976 12505 ft 365 kts 122°
2026-04-22 21:50 24.96571 55.65405 13000 ft 369 kts 122°
2026-04-22 21:51 24.95251 55.67851 13494 ft 373 kts 122°
2026-04-22 21:51 24.93888 55.70300 13946 ft 376 kts 126°
2026-04-22 21:51 24.92333 55.72638 14401 ft 379 kts 128°
2026-04-22 21:52 24.89200 55.77353 15340 ft 384 kts 128°
2026-04-22 21:52 24.87619 55.79740 15814 ft 387 kts 128°
2026-04-22 21:52 24.86025 55.82147 16280 ft 390 kts 128°
2026-04-22 21:52 24.84419 55.84568 16722 ft 393 kts 127°
2026-04-22 21:53 24.82789 55.87009 17154 ft 396 kts 128°
2026-04-22 21:53 24.81138 55.89448 17587 ft 400 kts 128°
2026-04-22 21:53 24.79489 55.91874 18036 ft 403 kts 128°
2026-04-22 21:53 24.77701 55.94269 18377 ft 405 kts 135°
2026-04-22 21:54 24.75658 55.96404 18779 ft 406 kts 139°
2026-04-22 21:54 24.73576 55.98524 19165 ft 408 kts 139°
2026-04-22 21:54 24.71493 56.00664 19549 ft 410 kts 139°
2026-04-22 21:54 24.69401 56.02819 19943 ft 412 kts 139°
2026-04-22 21:55 24.67327 56.04955 20320 ft 414 kts 139°
2026-04-22 21:55 24.65219 56.07127 20680 ft 416 kts 139°
2026-04-22 21:55 24.63099 56.09311 21076 ft 418 kts 139°
2026-04-22 21:55 24.60967 56.11506 21434 ft 420 kts 139°
2026-04-22 21:56 24.58826 56.13709 21791 ft 422 kts 139°
2026-04-22 21:56 24.56716 56.15968 22141 ft 426 kts 134°
2026-04-22 21:56 24.54773 56.18449 22492 ft 429 kts 133°
2026-04-22 21:56 24.52833 56.20938 22816 ft 431 kts 133°
2026-04-22 21:57 24.50867 56.23445 23156 ft 433 kts 133°
2026-04-22 21:57 24.48894 56.25954 23480 ft 435 kts 133°
2026-04-22 21:57 24.46912 56.28475 23780 ft 437 kts 133°
2026-04-22 21:57 24.44920 56.31007 24088 ft 439 kts 133°
2026-04-22 21:58 24.42944 56.33519 24355 ft 442 kts 133°
2026-04-22 21:58 24.40932 56.36076 24639 ft 444 kts 133°
2026-04-22 21:58 24.38904 56.38653 24929 ft 446 kts 133°
2026-04-22 21:58 24.36868 56.41236 25219 ft 449 kts 133°
2026-04-22 21:59 24.34818 56.43836 25529 ft 451 kts 133°
2026-04-22 21:59 24.32760 56.46446 25831 ft 454 kts 133°
2026-04-22 21:59 24.30687 56.49073 26156 ft 457 kts 133°
2026-04-22 21:59 24.28716 56.51823 26478 ft 461 kts 127°
2026-04-22 22:00 24.26835 56.54688 26807 ft 463 kts 127°
2026-04-22 22:00 24.24941 56.57550 27154 ft 466 kts 127°
2026-04-22 22:00 24.23675 56.59459 27397 ft 467 kts 127°
2026-04-22 22:00 24.21757 56.62345 27776 ft 470 kts 127°
2026-04-22 22:01 24.19826 56.65248 28113 ft 473 kts 127°
2026-04-22 22:01 24.17879 56.68174 28458 ft 476 kts 127°
2026-04-22 22:01 24.15923 56.71112 28824 ft 479 kts 127°
2026-04-22 22:01 24.13956 56.74066 29169 ft 482 kts 127°
2026-04-22 22:02 24.11976 56.77037 29524 ft 484 kts 127°
2026-04-22 22:02 24.09979 56.80031 29863 ft 487 kts 127°
2026-04-22 22:02 24.07974 56.83037 30166 ft 491 kts 127°
2026-04-22 22:02 24.05830 56.85950 30420 ft 492 kts 136°
2026-04-22 22:03 24.03231 56.88380 30712 ft 492 kts 147°
2026-04-22 22:03 24.00257 56.90213 30963 ft 492 kts 159°
2026-04-22 22:03 23.97007 56.91390 31244 ft 491 kts 170°
2026-04-22 22:03 23.93656 56.92135 31510 ft 493 kts 173°
2026-04-22 22:04 23.90319 56.92823 31773 ft 496 kts 172°
2026-04-22 22:04 23.86931 56.93591 32036 ft 500 kts 171°
2026-04-22 22:04 23.83517 56.94437 32307 ft 504 kts 170°
2026-04-22 22:04 23.80095 56.95330 32543 ft 508 kts 170°
2026-04-22 22:05 23.76647 56.96250 32789 ft 512 kts 169°
2026-04-22 22:05 23.73171 56.97185 33074 ft 515 kts 169°
2026-04-22 22:05 23.69682 56.98123 33344 ft 518 kts 170°
2026-04-22 22:05 23.66162 56.99068 33621 ft 521 kts 170°
2026-04-22 22:06 23.62627 57.00015 33843 ft 525 kts 170°
2026-04-22 22:06 23.55431 57.01938 33863 ft 533 kts 170°
2026-04-22 22:07 23.48208 57.03869 33873 ft 536 kts 170°
2026-04-22 22:07 23.40989 57.05672 33891 ft 532 kts 176°
2026-04-22 22:08 23.33677 57.05708 33899 ft 521 kts 193°
2026-04-22 22:08 23.26618 57.04096 33896 ft 519 kts 197°
2026-04-22 22:09 23.19544 57.02430 33918 ft 520 kts 197°
2026-04-22 22:09 23.12466 57.00771 33924 ft 520 kts 197°
2026-04-22 22:10 23.05427 56.99122 33914 ft 520 kts 197°
2026-04-22 22:10 22.98340 56.97460 33907 ft 520 kts 197°
2026-04-22 22:11 22.91260 56.95795 33907 ft 520 kts 198°
2026-04-22 22:11 22.84692 56.92922 33882 ft 502 kts 219°
2026-04-22 22:11 22.81975 56.90594 33887 ft 492 kts 230°
2026-04-22 22:12 22.79765 56.87815 33882 ft 483 kts 240°
2026-04-22 22:12 22.76574 56.81512 33889 ft 476 kts 248°
2026-04-22 22:13 22.73528 56.75151 33883 ft 475 kts 248°
2026-04-22 22:13 22.70467 56.68802 33862 ft 474 kts 248°
2026-04-22 22:14 22.67437 56.62518 33845 ft 474 kts 248°
2026-04-22 22:14 22.64387 56.56200 33834 ft 473 kts 248°
2026-04-22 22:15 22.61346 56.49906 33839 ft 471 kts 248°
2026-04-22 22:15 22.58305 56.43622 33831 ft 470 kts 248°
2026-04-22 22:16 22.55268 56.37351 33816 ft 470 kts 248°
2026-04-22 22:16 22.52238 56.31095 33811 ft 469 kts 248°
2026-04-22 22:17 22.49228 56.24883 33819 ft 468 kts 248°
2026-04-22 22:17 22.46202 56.18652 33814 ft 468 kts 248°
2026-04-22 22:18 22.43174 56.12421 33806 ft 467 kts 247°
2026-04-22 22:18 22.40140 56.06187 33800 ft 467 kts 247°
2026-04-22 22:19 22.37132 56.00013 33800 ft 467 kts 247°
2026-04-22 22:19 22.34083 55.93800 33795 ft 468 kts 247°
2026-04-22 22:20 22.31031 55.87593 33793 ft 468 kts 247°
2026-04-22 22:20 22.27976 55.81386 33794 ft 468 kts 247°
2026-04-22 22:21 22.24914 55.75164 33794 ft 468 kts 246°
2026-04-22 22:21 22.21879 55.68979 33794 ft 468 kts 247°
2026-04-22 22:22 22.18811 55.62731 33788 ft 469 kts 246°
2026-04-22 22:22 22.16290 55.56358 33789 ft 461 kts 257°
2026-04-22 22:23 22.15123 55.49613 33786 ft 455 kts 268°
2026-04-22 22:23 22.14595 55.42807 33786 ft 455 kts 268°
2026-04-22 22:24 22.14033 55.36011 33781 ft 455 kts 268°
2026-04-22 22:24 22.13470 55.29219 33772 ft 455 kts 268°
2026-04-22 22:25 22.12910 55.22472 33794 ft 453 kts 268°
2026-04-22 22:25 22.12347 55.15714 33783 ft 452 kts 268°
2026-04-22 22:26 22.11783 55.08971 33774 ft 451 kts 268°
2026-04-22 22:26 22.11216 55.02234 33766 ft 450 kts 268°
2026-04-22 22:27 22.10647 54.95519 33779 ft 449 kts 268°
2026-04-22 22:27 22.10077 54.88815 33775 ft 448 kts 268°
2026-04-22 22:28 22.09510 54.82166 33760 ft 447 kts 268°
2026-04-22 22:28 22.08937 54.75486 33762 ft 447 kts 268°
2026-04-22 22:29 22.08359 54.68796 33766 ft 447 kts 268°
2026-04-22 22:29 22.07781 54.62125 33765 ft 447 kts 268°
2026-04-22 22:30 22.07200 54.55449 33766 ft 447 kts 268°
2026-04-22 22:30 22.06617 54.48778 33766 ft 447 kts 268°
2026-04-22 22:31 22.06030 54.42114 33774 ft 446 kts 268°
2026-04-22 22:31 22.05446 54.35492 33774 ft 446 kts 268°
2026-04-22 22:32 22.04856 54.28838 33767 ft 446 kts 268°
2026-04-22 22:32 22.04263 54.22182 33769 ft 445 kts 268°
2026-04-22 22:33 22.03667 54.15525 33770 ft 445 kts 268°
2026-04-22 22:33 22.03070 54.08894 33771 ft 445 kts 268°
2026-04-22 22:34 22.02471 54.02251 33770 ft 445 kts 268°
2026-04-22 22:34 22.01868 53.95609 33785 ft 445 kts 268°
2026-04-22 22:35 22.01263 53.88985 33778 ft 444 kts 268°
2026-04-22 22:35 22.00661 53.82411 33774 ft 443 kts 268°
2026-04-22 22:36 22.00053 53.75798 33768 ft 443 kts 268°
2026-04-22 22:36 21.99443 53.69187 33756 ft 443 kts 268°
2026-04-22 22:37 21.98830 53.62583 33765 ft 443 kts 268°
2026-04-22 22:37 21.98218 53.56019 33767 ft 444 kts 268°
2026-04-22 22:38 21.97598 53.49402 33769 ft 444 kts 268°
2026-04-22 22:38 21.96976 53.42781 33775 ft 444 kts 268°
2026-04-22 22:39 21.96350 53.36156 33773 ft 445 kts 268°
2026-04-22 22:39 21.95721 53.29522 33775 ft 445 kts 268°
2026-04-22 22:40 21.95089 53.22889 33774 ft 445 kts 267°
2026-04-22 22:40 21.94455 53.16263 33774 ft 445 kts 267°
2026-04-22 22:41 21.93818 53.09635 33767 ft 445 kts 267°
2026-04-22 22:41 21.93183 53.03051 33770 ft 445 kts 267°
2026-04-22 22:42 21.92540 52.96415 33769 ft 445 kts 267°
2026-04-22 22:42 21.91895 52.89779 33773 ft 445 kts 267°
2026-04-22 22:43 21.91247 52.83156 33771 ft 445 kts 266°
2026-04-22 22:43 21.90596 52.76515 33768 ft 445 kts 266°
2026-04-22 22:44 21.90386 52.69881 33775 ft 443 kts 275°
2026-04-22 22:44 21.91319 52.63337 33773 ft 442 kts 282°
2026-04-22 22:45 21.92512 52.56884 33788 ft 442 kts 282°
2026-04-22 22:45 21.93701 52.50391 33775 ft 442 kts 281°
2026-04-22 22:46 21.94895 52.43885 33775 ft 442 kts 281°
2026-04-22 22:46 21.96083 52.37393 33775 ft 442 kts 281°
2026-04-22 22:47 21.97069 52.31992 33779 ft 442 kts 281°
2026-04-22 22:47 21.98255 52.25488 33785 ft 442 kts 281°
2026-04-22 22:48 21.99435 52.18994 33785 ft 442 kts 281°
2026-04-22 22:48 22.00612 52.12500 33786 ft 441 kts 281°
2026-04-22 22:49 22.01786 52.06009 33783 ft 441 kts 281°
2026-04-22 22:49 22.02950 51.99561 33794 ft 441 kts 281°
2026-04-22 22:50 22.04120 51.93061 33788 ft 441 kts 281°
2026-04-22 22:50 22.05287 51.86566 33788 ft 441 kts 281°
2026-04-22 22:51 22.06450 51.80079 33789 ft 441 kts 281°
2026-04-22 22:51 22.07610 51.73591 33784 ft 441 kts 281°
2026-04-22 22:52 22.08769 51.67093 33784 ft 441 kts 281°
2026-04-22 22:52 22.09926 51.60592 33792 ft 441 kts 281°
2026-04-22 22:53 22.11078 51.54100 33793 ft 441 kts 281°
2026-04-22 22:53 22.12223 51.47635 33796 ft 441 kts 281°
2026-04-22 22:54 22.13372 51.41130 33812 ft 442 kts 281°
2026-04-22 22:54 22.14520 51.34617 33808 ft 441 kts 281°
2026-04-22 22:55 22.15664 51.28111 33810 ft 440 kts 281°
2026-04-22 22:55 22.17361 51.18428 33801 ft 439 kts 281°
2026-04-22 22:56 22.18495 51.11943 33801 ft 439 kts 281°
2026-04-22 22:56 22.19624 51.05463 33798 ft 439 kts 281°
2026-04-22 22:57 22.20749 50.98995 33801 ft 439 kts 281°
2026-04-22 22:57 22.21873 50.92516 33802 ft 439 kts 281°
2026-04-22 22:58 22.22994 50.86041 33813 ft 439 kts 281°
2026-04-22 22:58 22.24113 50.79560 33818 ft 438 kts 281°
2026-04-22 22:59 22.25220 50.73131 33815 ft 438 kts 281°
2026-04-22 22:59 22.26333 50.66652 33813 ft 437 kts 281°
2026-04-22 23:00 22.27438 50.60199 33810 ft 437 kts 281°
2026-04-22 23:00 22.28540 50.53754 33813 ft 437 kts 281°
2026-04-22 23:01 22.29641 50.47303 33801 ft 437 kts 281°
2026-04-22 23:01 22.30740 50.40841 33809 ft 437 kts 281°
2026-04-22 23:02 22.31836 50.34382 33807 ft 437 kts 281°
2026-04-22 23:02 22.32923 50.27966 33845 ft 436 kts 281°
2026-04-22 23:03 22.34011 50.21523 33838 ft 435 kts 281°
2026-04-22 23:03 22.35096 50.15080 33830 ft 434 kts 281°
2026-04-22 23:04 22.36175 50.08655 33819 ft 433 kts 280°
2026-04-22 23:04 22.37240 50.02298 33811 ft 432 kts 280°
2026-04-22 23:05 22.38309 49.95908 33801 ft 432 kts 280°
2026-04-22 23:05 22.39217 49.90463 33824 ft 436 kts 280°
2026-04-22 23:06 22.40290 49.84010 33827 ft 437 kts 280°
2026-04-22 23:06 22.40830 49.80763 33982 ft 440 kts 280°
2026-04-22 23:06 22.41368 49.77514 34437 ft 438 kts 280°
2026-04-22 23:07 22.41905 49.74277 34906 ft 435 kts 280°
2026-04-22 23:07 22.42439 49.71054 35235 ft 436 kts 279°
2026-04-22 23:07 22.42972 49.67824 35631 ft 436 kts 279°
2026-04-22 23:07 22.43506 49.64591 35810 ft 436 kts 279°
2026-04-22 23:08 22.44549 49.58257 35823 ft 429 kts 279°
2026-04-22 23:08 22.45596 49.51882 35829 ft 431 kts 279°
2026-04-22 23:09 22.46641 49.45502 35824 ft 430 kts 279°
2026-04-22 23:09 22.47683 49.39129 35829 ft 430 kts 279°
2026-04-22 23:10 22.48722 49.32756 35826 ft 430 kts 279°
2026-04-22 23:10 22.49759 49.26376 35827 ft 430 kts 279°
2026-04-22 23:11 22.50786 49.20044 35849 ft 429 kts 279°
2026-04-22 23:11 22.51814 49.13691 35843 ft 428 kts 279°
2026-04-22 23:12 22.52837 49.07355 35828 ft 427 kts 279°
2026-04-22 23:12 22.53855 49.01027 35825 ft 426 kts 279°
2026-04-22 23:13 22.54868 48.94717 35826 ft 425 kts 279°
2026-04-22 23:13 22.55877 48.88412 35820 ft 425 kts 279°
2026-04-22 23:14 22.56885 48.82103 35825 ft 425 kts 279°
2026-04-22 23:14 22.57890 48.75796 35827 ft 425 kts 279°
2026-04-22 23:15 22.58892 48.69486 35862 ft 425 kts 279°
2026-04-22 23:15 22.59886 48.63214 35861 ft 424 kts 279°
2026-04-22 23:16 22.60879 48.56935 35851 ft 423 kts 279°
2026-04-22 23:16 22.61866 48.50671 35845 ft 422 kts 279°
2026-04-22 23:17 22.62850 48.44418 35838 ft 421 kts 279°
2026-04-22 23:17 22.63829 48.38170 35835 ft 421 kts 279°
2026-04-22 23:18 22.64807 48.31919 35837 ft 421 kts 279°
2026-04-22 23:18 22.65779 48.25689 35842 ft 422 kts 279°
2026-04-22 23:19 22.66754 48.19429 35854 ft 422 kts 279°
2026-04-22 23:19 22.67731 48.13148 35862 ft 423 kts 279°
2026-04-22 23:20 22.68706 48.06862 35862 ft 423 kts 279°
2026-04-22 23:20 22.69438 48.00583 35859 ft 423 kts 275°
2026-04-22 23:21 22.69962 47.94236 35861 ft 423 kts 275°
2026-04-22 23:21 22.70506 47.87891 35863 ft 423 kts 275°
2026-04-22 23:22 22.71035 47.81584 35865 ft 423 kts 275°
2026-04-22 23:22 22.71562 47.75241 35868 ft 423 kts 275°
2026-04-22 23:23 22.72087 47.68883 35870 ft 424 kts 275°
2026-04-22 23:23 22.72609 47.62522 35876 ft 424 kts 275°
2026-04-22 23:24 22.73129 47.56159 35875 ft 424 kts 275°
2026-04-22 23:24 22.73648 47.49787 35884 ft 424 kts 275°
2026-04-22 23:25 22.74164 47.43419 35882 ft 424 kts 275°
2026-04-22 23:25 22.74678 47.37042 35877 ft 424 kts 275°
2026-04-22 23:26 22.75186 47.30714 35875 ft 425 kts 275°
2026-04-22 23:26 22.75695 47.24332 35886 ft 425 kts 274°
2026-04-22 23:27 22.76201 47.17952 35880 ft 425 kts 274°
2026-04-22 23:27 22.76708 47.11570 35891 ft 425 kts 275°
2026-04-22 23:28 22.77216 47.05185 35911 ft 425 kts 274°
2026-04-22 23:28 22.77721 46.98792 35905 ft 425 kts 274°
2026-04-22 23:29 22.78222 46.92410 35898 ft 425 kts 274°
2026-04-22 23:29 22.78718 46.86067 35897 ft 425 kts 274°
2026-04-22 23:30 22.79214 46.79687 35905 ft 424 kts 274°
2026-04-22 23:30 22.79707 46.73315 35904 ft 424 kts 274°
2026-04-22 23:31 22.80198 46.66934 35901 ft 424 kts 274°
2026-04-22 23:31 22.80685 46.60562 35911 ft 424 kts 274°
2026-04-22 23:32 22.81167 46.54240 35901 ft 424 kts 274°
2026-04-22 23:32 22.81651 46.47854 35916 ft 425 kts 274°
2026-04-22 23:33 22.82132 46.41458 35914 ft 426 kts 274°
2026-04-22 23:33 22.82610 46.35065 35914 ft 426 kts 274°
2026-04-22 23:34 22.83004 46.29732 35911 ft 426 kts 274°
2026-04-22 23:34 22.83477 46.23332 35914 ft 426 kts 274°
2026-04-22 23:35 22.83944 46.16962 35905 ft 426 kts 274°
2026-04-22 23:35 22.84412 46.10555 35886 ft 426 kts 274°
2026-04-22 23:36 22.84877 46.04140 35885 ft 427 kts 274°
2026-04-22 23:36 22.85340 45.97720 35884 ft 427 kts 274°
2026-04-22 23:37 22.85801 45.91291 35894 ft 427 kts 274°
2026-04-22 23:37 22.86260 45.84864 35889 ft 427 kts 274°
2026-04-22 23:38 22.86715 45.78439 35888 ft 427 kts 274°
2026-04-22 23:38 22.87168 45.72017 35868 ft 427 kts 273°
2026-04-22 23:39 22.87616 45.65635 35871 ft 427 kts 273°
2026-04-22 23:39 22.88063 45.59212 35872 ft 427 kts 273°
2026-04-22 23:40 22.88509 45.52784 35862 ft 427 kts 273°
2026-04-22 23:40 22.88952 45.46352 35871 ft 428 kts 273°
2026-04-22 23:41 22.89394 45.39903 35873 ft 428 kts 273°
2026-04-22 23:41 22.89833 45.33456 35877 ft 429 kts 273°
2026-04-22 23:42 22.90271 45.26986 35885 ft 429 kts 273°
2026-04-22 23:42 22.90705 45.20529 35887 ft 430 kts 273°
2026-04-22 23:43 22.91137 45.14065 35871 ft 430 kts 273°
2026-04-22 23:43 22.91565 45.07642 35877 ft 430 kts 273°
2026-04-22 23:44 22.91991 45.01174 35870 ft 430 kts 273°
2026-04-22 23:44 22.92415 44.94697 35861 ft 430 kts 273°
2026-04-22 23:45 22.92836 44.88221 35863 ft 431 kts 273°
2026-04-22 23:45 22.93256 44.81731 35862 ft 431 kts 273°
2026-04-22 23:46 22.93674 44.75233 35868 ft 432 kts 273°
2026-04-22 23:46 22.94186 44.68741 35876 ft 432 kts 277°
2026-04-22 23:47 22.95613 44.62431 35872 ft 436 kts 286°
2026-04-22 23:47 22.97564 44.56205 35878 ft 435 kts 285°
2026-04-22 23:48 22.99482 44.49968 35875 ft 435 kts 285°
2026-04-22 23:48 23.01401 44.43728 35873 ft 435 kts 285°
2026-04-22 23:49 23.03306 44.37535 35878 ft 435 kts 285°
2026-04-22 23:49 23.05219 44.31306 35874 ft 434 kts 285°
2026-04-22 23:50 23.07125 44.25093 35869 ft 434 kts 285°
2026-04-22 23:50 23.09027 44.18880 35863 ft 434 kts 285°
2026-04-22 23:51 23.10929 44.12659 35861 ft 434 kts 285°
2026-04-22 23:51 23.12830 44.06431 35869 ft 434 kts 285°
2026-04-22 23:52 23.14728 44.00202 35881 ft 434 kts 285°
2026-04-22 23:52 23.16623 43.93977 35872 ft 434 kts 285°
2026-04-22 23:53 23.18517 43.87740 35877 ft 434 kts 285°
2026-04-22 23:53 23.20405 43.81516 35893 ft 434 kts 285°
2026-04-22 23:54 23.22276 43.75338 35887 ft 433 kts 285°
2026-04-22 23:54 23.24157 43.69117 35887 ft 433 kts 285°
2026-04-22 23:55 23.26034 43.62899 35904 ft 432 kts 285°
2026-04-22 23:55 23.27906 43.56689 35902 ft 431 kts 285°
2026-04-22 23:56 23.29773 43.50487 35902 ft 431 kts 285°
2026-04-22 23:56 23.31636 43.44287 35898 ft 431 kts 285°
2026-04-22 23:57 23.33493 43.38098 35910 ft 430 kts 285°
2026-04-22 23:57 23.35350 43.31901 35912 ft 430 kts 285°
2026-04-22 23:58 23.37188 43.25752 35915 ft 430 kts 285°
2026-04-22 23:58 23.39035 43.19567 35921 ft 430 kts 285°
2026-04-22 23:59 23.40881 43.13379 35923 ft 430 kts 285°
2026-04-22 23:59 23.42721 43.07182 35925 ft 429 kts 285°
2026-04-23 00:00 23.45470 42.97905 35936 ft 429 kts 285°
2026-04-23 00:01 23.47298 42.91725 35930 ft 428 kts 285°
2026-04-23 00:01 23.49109 42.85588 35920 ft 428 kts 285°
2026-04-23 00:02 23.50931 42.79408 35918 ft 427 kts 285°
2026-04-23 00:02 23.52752 42.73223 35916 ft 427 kts 285°
2026-04-23 00:03 23.54572 42.67048 35913 ft 427 kts 285°
2026-04-23 00:03 23.56376 42.60916 35920 ft 428 kts 285°
2026-04-23 00:04 23.58190 42.54739 35912 ft 428 kts 285°
2026-04-23 00:04 23.60000 42.48566 35906 ft 428 kts 285°
2026-04-23 00:05 23.61809 42.42383 35907 ft 428 kts 285°
2026-04-23 00:05 23.63618 42.36194 35912 ft 427 kts 284°
2026-04-23 00:06 23.65407 42.30063 35909 ft 427 kts 284°
2026-04-23 00:06 23.67201 42.23893 35901 ft 426 kts 284°
2026-04-23 00:07 23.68988 42.17725 35918 ft 426 kts 284°
2026-04-23 00:07 23.70768 42.11575 35915 ft 424 kts 284°
2026-04-23 00:08 23.72539 42.05442 35901 ft 423 kts 284°
2026-04-23 00:08 23.74292 41.99364 35890 ft 422 kts 284°
2026-04-23 00:09 23.76054 41.93266 35892 ft 420 kts 284°
2026-04-23 00:09 23.77808 41.87195 35896 ft 419 kts 284°
2026-04-23 00:10 23.79557 41.81131 35887 ft 418 kts 284°
2026-04-23 00:10 23.81299 41.75079 35896 ft 417 kts 284°
2026-04-23 00:11 23.83030 41.69048 35893 ft 415 kts 284°
2026-04-23 00:11 23.84756 41.63027 35880 ft 415 kts 284°
2026-04-23 00:12 23.86474 41.57021 35873 ft 414 kts 284°
2026-04-23 00:12 23.88187 41.51010 35876 ft 415 kts 284°
2026-04-23 00:13 23.89895 41.44989 35876 ft 415 kts 284°
2026-04-23 00:13 23.91603 41.38962 35882 ft 415 kts 284°
2026-04-23 00:14 23.93303 41.32957 35887 ft 416 kts 283°
2026-04-23 00:14 23.95020 41.26904 35888 ft 417 kts 283°
2026-04-23 00:15 23.96739 41.20836 35892 ft 417 kts 283°
2026-04-23 00:15 23.98455 41.14762 35886 ft 418 kts 283°
2026-04-23 00:16 24.00159 41.08726 35883 ft 418 kts 283°
2026-04-23 00:16 24.01874 41.02634 35889 ft 419 kts 283°
2026-04-23 00:17 24.03587 40.96542 35886 ft 419 kts 283°
2026-04-23 00:17 24.05303 40.90432 35897 ft 419 kts 283°
2026-04-23 00:18 24.07004 40.84362 35888 ft 419 kts 283°
2026-04-23 00:18 24.08710 40.78264 35887 ft 419 kts 283°
2026-04-23 00:19 24.10413 40.72164 35883 ft 419 kts 283°
2026-04-23 00:19 24.12116 40.66057 35881 ft 419 kts 283°
2026-04-23 00:20 24.13527 40.60989 35880 ft 418 kts 283°
2026-04-23 00:20 24.15502 40.53901 35877 ft 418 kts 284°
2026-04-23 00:21 24.17820 40.48007 35875 ft 425 kts 292°
2026-04-23 00:21 24.20126 40.43261 35881 ft 424 kts 292°
2026-04-23 00:22 24.22869 40.37531 35879 ft 424 kts 292°
2026-04-23 00:22 24.25611 40.31798 35877 ft 424 kts 292°
2026-04-23 00:23 24.28333 40.26107 35874 ft 424 kts 292°
2026-04-23 00:23 24.31069 40.20384 35877 ft 424 kts 291°
2026-04-23 00:24 24.33805 40.14650 35875 ft 424 kts 291°
2026-04-23 00:24 24.36539 40.08915 35879 ft 424 kts 291°
2026-04-23 00:25 24.39268 40.03183 35880 ft 424 kts 291°
2026-04-23 00:25 24.42004 39.97430 35883 ft 424 kts 291°
2026-04-23 00:26 24.44718 39.91715 35884 ft 425 kts 291°
2026-04-23 00:26 24.47448 39.85962 35882 ft 425 kts 291°
2026-04-23 00:27 24.50175 39.80205 35897 ft 425 kts 291°
2026-04-23 00:27 24.52959 39.74465 35885 ft 429 kts 295°
2026-04-23 00:28 24.56740 39.69287 35886 ft 442 kts 308°
2026-04-23 00:28 24.61648 39.65037 35884 ft 452 kts 315°
2026-04-23 00:29 24.66716 39.61002 35891 ft 452 kts 315°
2026-04-23 00:29 24.71797 39.56935 35886 ft 452 kts 315°
2026-04-23 00:30 24.76890 39.52858 35864 ft 452 kts 315°
2026-04-23 00:30 24.81991 39.48776 35875 ft 453 kts 315°
2026-04-23 00:31 24.87092 39.44690 35879 ft 453 kts 315°
2026-04-23 00:31 24.92188 39.40602 35883 ft 453 kts 315°
2026-04-23 00:32 24.97277 39.36515 35878 ft 452 kts 315°
2026-04-23 00:32 25.02337 39.32449 35885 ft 452 kts 315°
2026-04-23 00:33 25.07428 39.28352 35872 ft 452 kts 315°
2026-04-23 00:33 25.12479 39.24284 35873 ft 451 kts 315°
2026-04-23 00:34 25.17552 39.20194 35864 ft 451 kts 315°
2026-04-23 00:34 25.22155 39.15644 35868 ft 437 kts 304°
2026-04-23 00:35 25.25771 39.10370 35856 ft 427 kts 295°
2026-04-23 00:35 25.28986 39.04851 35863 ft 427 kts 296°
2026-04-23 00:36 25.32222 38.99343 35853 ft 427 kts 296°
2026-04-23 00:36 25.35424 38.93870 35851 ft 426 kts 296°
2026-04-23 00:37 25.38642 38.88358 35858 ft 426 kts 296°
2026-04-23 00:37 25.41851 38.82850 35833 ft 426 kts 296°
2026-04-23 00:38 25.45061 38.77337 35829 ft 426 kts 296°
2026-04-23 00:38 25.48264 38.71828 35817 ft 425 kts 295°
2026-04-23 00:39 25.51446 38.66351 35824 ft 425 kts 295°
2026-04-23 00:39 25.54643 38.60840 35814 ft 426 kts 295°
2026-04-23 00:40 25.57846 38.55311 35814 ft 426 kts 295°
2026-04-23 00:40 25.61051 38.49774 35818 ft 426 kts 295°
2026-04-23 00:41 25.64249 38.44241 35816 ft 426 kts 295°
2026-04-23 00:41 25.67452 38.38694 35816 ft 426 kts 295°
2026-04-23 00:42 25.70632 38.33179 35821 ft 427 kts 295°
2026-04-23 00:42 25.73834 38.27622 35821 ft 426 kts 295°
2026-04-23 00:43 25.77026 38.22073 35819 ft 426 kts 295°
2026-04-23 00:43 25.80202 38.16547 35815 ft 425 kts 295°
2026-04-23 00:44 25.83356 38.11052 35809 ft 424 kts 295°
2026-04-23 00:44 25.86528 38.05519 35802 ft 424 kts 295°
2026-04-23 00:45 25.89700 37.99980 35818 ft 424 kts 295°
2026-04-23 00:45 25.92866 37.94441 35837 ft 425 kts 295°
2026-04-23 00:46 25.96045 37.88871 35850 ft 426 kts 295°
2026-04-23 00:46 25.99024 37.83212 35853 ft 419 kts 289°
2026-04-23 00:47 26.00923 37.77165 35851 ft 411 kts 279°
2026-04-23 00:47 26.01850 37.70949 35856 ft 409 kts 275°
2026-04-23 00:48 26.02708 37.64698 35847 ft 408 kts 275°
2026-04-23 00:48 26.03561 37.58458 35836 ft 408 kts 275°
2026-04-23 00:49 26.04403 37.52222 35828 ft 407 kts 275°
2026-04-23 00:49 26.05241 37.45990 35831 ft 408 kts 275°
2026-04-23 00:50 26.06072 37.39782 35827 ft 408 kts 275°
2026-04-23 00:50 26.06906 37.33535 35829 ft 408 kts 275°
2026-04-23 00:51 26.07737 37.27286 35821 ft 408 kts 275°
2026-04-23 00:51 26.08565 37.21043 35817 ft 408 kts 275°
2026-04-23 00:52 26.09389 37.14804 35816 ft 407 kts 275°
2026-04-23 00:52 26.10210 37.08570 35801 ft 407 kts 275°
2026-04-23 00:53 26.11026 37.02351 35791 ft 406 kts 275°
2026-04-23 00:53 26.11840 36.96124 35791 ft 406 kts 275°
2026-04-23 00:54 26.12646 36.89940 35740 ft 406 kts 275°
2026-04-23 00:54 26.13454 36.83718 35752 ft 406 kts 275°
2026-04-23 00:55 26.14261 36.77479 35759 ft 407 kts 275°
2026-04-23 00:55 26.15066 36.71232 35769 ft 408 kts 275°
2026-04-23 00:56 26.15871 36.64968 35774 ft 409 kts 275°
2026-04-23 00:56 26.16669 36.58740 35773 ft 409 kts 275°
2026-04-23 00:57 26.17643 36.52484 35782 ft 413 kts 282°
2026-04-23 00:57 26.20143 36.46643 35783 ft 427 kts 297°
2026-04-23 00:58 26.24178 36.41636 35776 ft 437 kts 306°
2026-04-23 00:58 26.28414 36.36769 35813 ft 437 kts 305°
2026-04-23 00:59 26.32609 36.31925 35784 ft 436 kts 305°
2026-04-23 00:59 26.36820 36.27064 35773 ft 435 kts 305°
2026-04-23 01:00 26.41013 36.22217 35773 ft 434 kts 305°
2026-04-23 01:00 26.45197 36.17377 35765 ft 433 kts 304°
2026-04-23 01:01 26.49369 36.12545 35757 ft 432 kts 304°
2026-04-23 01:01 26.53537 36.07711 35752 ft 431 kts 304°
2026-04-23 01:02 26.57697 36.02882 35740 ft 431 kts 304°
2026-04-23 01:02 26.61839 35.98068 35743 ft 432 kts 304°
2026-04-23 01:03 26.66001 35.93226 35793 ft 432 kts 304°
2026-04-23 01:03 26.70166 35.88376 35793 ft 431 kts 304°
2026-04-23 01:04 26.74315 35.83539 35775 ft 431 kts 304°
2026-04-23 01:04 26.80500 35.76318 35773 ft 429 kts 304°
2026-04-23 01:05 26.84640 35.71477 35772 ft 429 kts 304°
2026-04-23 01:05 26.88767 35.66648 35778 ft 428 kts 304°
2026-04-23 01:06 26.92885 35.61823 35767 ft 428 kts 304°
2026-04-23 01:06 26.96975 35.57025 35768 ft 428 kts 304°
2026-04-23 01:07 27.01093 35.52189 35771 ft 428 kts 304°
2026-04-23 01:07 27.05200 35.47360 35802 ft 428 kts 304°
2026-04-23 01:08 27.08615 35.43342 35797 ft 427 kts 304°
2026-04-23 01:08 27.12714 35.38515 35788 ft 426 kts 304°
2026-04-23 01:09 27.16808 35.33686 35785 ft 426 kts 304°
2026-04-23 01:09 27.20886 35.28870 35780 ft 425 kts 304°
2026-04-23 01:10 27.24958 35.24056 35782 ft 425 kts 304°
2026-04-23 01:10 27.29010 35.19259 35779 ft 425 kts 304°
2026-04-23 01:11 27.33087 35.14429 35785 ft 425 kts 304°
2026-04-23 01:11 27.37166 35.09591 35789 ft 426 kts 304°
2026-04-23 01:12 27.41240 35.04752 35818 ft 426 kts 304°
2026-04-23 01:12 27.45298 34.99927 35804 ft 427 kts 304°
2026-04-23 01:13 27.49384 34.95064 35796 ft 428 kts 304°
2026-04-23 01:13 27.53626 34.90319 35808 ft 432 kts 308°
2026-04-23 01:14 27.58025 34.85692 35810 ft 432 kts 308°
2026-04-23 01:14 27.62411 34.81057 35826 ft 432 kts 308°
2026-04-23 01:15 27.66794 34.76419 35827 ft 432 kts 308°
2026-04-23 01:15 27.71178 34.71774 35836 ft 432 kts 308°
2026-04-23 01:16 27.75567 34.67119 35835 ft 432 kts 308°
2026-04-23 01:16 27.79928 34.62486 35831 ft 434 kts 308°
2026-04-23 01:17 27.84335 34.57802 35841 ft 435 kts 308°
2026-04-23 01:17 27.88757 34.53096 35850 ft 436 kts 308°
2026-04-23 01:18 27.93176 34.48388 35861 ft 437 kts 308°
2026-04-23 01:18 27.97603 34.43670 35861 ft 438 kts 308°
2026-04-23 01:19 28.01734 34.38684 35865 ft 430 kts 301°
2026-04-23 01:19 28.05494 34.33457 35870 ft 431 kts 302°
2026-04-23 01:20 28.09302 34.28202 35882 ft 432 kts 302°
2026-04-23 01:20 28.13110 34.22932 35905 ft 431 kts 302°
2026-04-23 01:21 28.16919 34.17646 35887 ft 434 kts 302°
2026-04-23 01:21 28.20737 34.12341 35890 ft 434 kts 302°
2026-04-23 01:22 28.24561 34.07029 35915 ft 435 kts 302°
2026-04-23 01:22 28.28361 34.01735 35939 ft 435 kts 302°
2026-04-23 01:23 28.32184 33.96407 35925 ft 436 kts 302°
2026-04-23 01:23 28.36017 33.91056 35922 ft 437 kts 302°
2026-04-23 01:24 28.39866 33.85675 35939 ft 440 kts 302°
2026-04-23 01:24 28.43726 33.80273 35941 ft 440 kts 302°
2026-04-23 01:25 28.47579 33.74876 35907 ft 440 kts 302°
2026-04-23 01:25 28.51428 33.69476 35916 ft 439 kts 302°
2026-04-23 01:26 28.55249 33.64109 35896 ft 440 kts 303°
2026-04-23 01:26 28.59110 33.58688 35911 ft 441 kts 303°
2026-04-23 01:27 28.62979 33.53251 35917 ft 442 kts 303°
2026-04-23 01:27 28.66847 33.47799 35921 ft 443 kts 303°
2026-04-23 01:28 28.70695 33.42368 35933 ft 443 kts 303°
2026-04-23 01:28 28.74565 33.36902 35928 ft 442 kts 303°
2026-04-23 01:29 28.78422 33.31445 35922 ft 442 kts 303°
2026-04-23 01:29 28.82286 33.25971 35923 ft 442 kts 303°
2026-04-23 01:30 28.86119 33.20534 35931 ft 442 kts 303°
2026-04-23 01:30 28.89967 33.15068 35937 ft 441 kts 303°
2026-04-23 01:31 28.93814 33.09597 35923 ft 441 kts 303°
2026-04-23 01:31 28.97661 33.04118 35918 ft 441 kts 303°
2026-04-23 01:32 29.01499 32.98646 35921 ft 441 kts 303°
2026-04-23 01:32 29.05337 32.93165 35935 ft 441 kts 302°
2026-04-23 01:33 29.09147 32.87719 35938 ft 441 kts 302°
2026-04-23 01:33 29.12985 32.82224 35937 ft 442 kts 302°
2026-04-23 01:34 29.16821 32.76724 35939 ft 442 kts 302°
2026-04-23 01:34 29.20639 32.71244 35946 ft 442 kts 302°
2026-04-23 01:35 29.24475 32.65730 35950 ft 442 kts 302°
2026-04-23 01:35 29.28307 32.60215 35946 ft 443 kts 302°
2026-04-23 01:36 29.32123 32.54676 35949 ft 443 kts 302°
2026-04-23 01:36 29.35938 32.49108 35949 ft 444 kts 303°
2026-04-23 01:37 29.39734 32.43569 35958 ft 444 kts 302°
2026-04-23 01:37 29.43558 32.37985 35968 ft 444 kts 302°
2026-04-23 01:38 29.47379 32.32397 35971 ft 445 kts 302°
2026-04-23 01:38 29.51199 32.26803 35975 ft 445 kts 302°
2026-04-23 01:39 29.55021 32.21198 35977 ft 445 kts 302°
2026-04-23 01:39 29.58810 32.15634 35975 ft 445 kts 302°
2026-04-23 01:40 29.62618 32.10035 35973 ft 444 kts 302°
2026-04-23 01:40 29.66426 32.04427 35969 ft 445 kts 302°
2026-04-23 01:41 29.70233 31.98813 35972 ft 445 kts 302°
2026-04-23 01:41 29.74041 31.93190 35974 ft 445 kts 302°
2026-04-23 01:42 29.77851 31.87557 35975 ft 446 kts 302°
2026-04-23 01:42 29.81562 31.81902 35979 ft 445 kts 301°
2026-04-23 01:43 29.85219 31.76145 35981 ft 445 kts 301°
2026-04-23 01:43 29.89163 31.70606 35975 ft 453 kts 311°
2026-04-23 01:44 29.94501 31.66552 35971 ft 470 kts 329°
2026-04-23 01:44 30.00932 31.64605 35969 ft 486 kts 344°
2026-04-23 01:45 30.07617 31.63430 35993 ft 486 kts 344°
2026-04-23 01:45 30.14318 31.62222 35965 ft 487 kts 344°
2026-04-23 01:46 30.20981 31.61023 35968 ft 487 kts 344°
2026-04-23 01:46 30.27706 31.59814 35978 ft 487 kts 344°
2026-04-23 01:47 30.34411 31.58606 35965 ft 488 kts 344°
2026-04-23 01:47 30.41125 31.57395 35977 ft 488 kts 344°
2026-04-23 01:48 30.47806 31.56188 35975 ft 488 kts 344°
2026-04-23 01:48 30.54520 31.54974 35975 ft 488 kts 344°
2026-04-23 01:49 30.61244 31.53755 35983 ft 488 kts 344°
2026-04-23 01:49 30.67964 31.52537 35982 ft 488 kts 344°
2026-04-23 01:50 30.74683 31.51316 35981 ft 488 kts 344°
2026-04-23 01:50 30.81395 31.50094 35979 ft 488 kts 344°
2026-04-23 01:51 30.88062 31.48876 35982 ft 488 kts 344°
2026-04-23 01:51 30.94777 31.47648 35987 ft 488 kts 344°
2026-04-23 01:52 31.01495 31.46418 35981 ft 488 kts 344°
2026-04-23 01:52 31.07069 31.45396 35981 ft 488 kts 344°
2026-04-23 01:53 31.13779 31.44164 35978 ft 488 kts 345°
2026-04-23 01:53 31.20491 31.42930 35987 ft 488 kts 345°
2026-04-23 01:54 31.27188 31.41697 35981 ft 487 kts 345°